| time (UTC) | temp C | wind direction | speed KPH | gust KPH | rain 1hr cm | rain 24hr cm | rain mn cm | humidity % | barometer mb |
| 20260506050433 | 6 | 45 | 0.0 | 0.0 | 0.00 | 0.71 | 0.48 | 94 | 1019.7 |
| 20260506044432 | 6 | 45 | 0.0 | 0.0 | 0.00 | 0.71 | 0.48 | 94 | 1019.7 |
| 20260506043432 | 6 | 45 | 0.0 | 0.0 | 0.00 | 0.71 | 0.48 | 94 | 1019.5 |
| 20260506042530 | 6 | 45 | 0.0 | 0.0 | 0.00 | 0.71 | 0.48 | 94 | 1019.7 |
| 20260506041532 | 6 | 45 | 0.0 | 0.0 | 0.00 | 0.71 | 0.48 | 94 | 1019.6 |
| 20260506034632 | 6 | 45 | 0.0 | 0.0 | 0.00 | 0.71 | 0.48 | 94 | 1019.2 |
| 20260506032632 | 6 | 45 | 0.0 | 0.0 | 0.00 | 0.76 | 0.48 | 94 | 1018.7 |
| 20260506031631 | 6 | 45 | 0.0 | 0.0 | 0.00 | 0.76 | 0.48 | 94 | 1018.7 |
| 20260506030631 | 6 | 45 | 0.0 | 0.0 | 0.00 | 0.76 | 0.48 | 94 | 1018.7 |
| 20260506025632 | 6 | 45 | 0.0 | 0.0 | 0.00 | 0.76 | 0.48 | 94 | 1018.6 |
| 20260506024634 | 6 | 45 | 0.0 | 0.0 | 0.00 | 0.76 | 0.48 | 94 | 1018.6 |
| 20260506023634 | 6 | 45 | 0.0 | 0.0 | 0.00 | 0.76 | 0.48 | 94 | 1018.5 |
| 20260506022632 | 6 | 45 | 0.0 | 0.0 | 0.00 | 0.76 | 0.48 | 94 | 1018.3 |
| 20260506021730 | 6 | 45 | 0.0 | 0.0 | 0.00 | 0.76 | 0.48 | 94 | 1018.2 |
| 20260506020731 | 6 | 45 | 0.0 | 0.0 | 0.00 | 0.76 | 0.48 | 94 | 1018.3 |
| 20260506015731 | 6 | 45 | 0.0 | 0.0 | 0.00 | 0.76 | 0.48 | 94 | 1018.3 |
| 20260506014830 | 6 | 67 | 0.0 | 0.0 | 0.00 | 0.76 | 0.48 | 94 | 1018.2 |
| 20260506013832 | 6 | 135 | 0.0 | 0.0 | 0.00 | 0.76 | 0.48 | 94 | 1018.3 |
| 20260506012931 | 6 | 90 | 0.0 | 0.0 | 0.00 | 0.76 | 0.48 | 94 | 1018.3 |
| 20260506011933 | 6 | 157 | 0.0 | 0.0 | 0.00 | 0.76 | 0.48 | 94 | 1018.3 |
| 20260506010933 | 6 | 157 | 0.0 | 0.0 | 0.00 | 0.76 | 0.48 | 94 | 1018.1 |
| 20260506005933 | 6 | 157 | 0.0 | 0.0 | 0.00 | 0.76 | 0.48 | 94 | 1018.2 |
| 20260506005031 | 6 | 157 | 0.0 | 0.0 | 0.00 | 0.76 | 0.48 | 94 | 1018.0 |
| 20260506004033 | 6 | 157 | 0.0 | 0.0 | 0.00 | 0.76 | 0.48 | 93 | 1018.1 |
| 20260506003033 | 6 | 157 | 0.0 | 1.6 | 0.00 | 0.79 | 0.48 | 93 | 1018.0 |
| 20260506002031 | 6 | 157 | 0.0 | 0.0 | 0.00 | 0.79 | 0.48 | 93 | 1018.1 |
| 20260506001032 | 6 | 137 | 1.6 | 6.4 | 0.00 | 0.79 | 0.48 | 93 | 1017.9 |
| 20260506000034 | 6 | 157 | 0.0 | 0.0 | 0.00 | 0.79 | 0.48 | 92 | 1017.9 |
| 20260505235031 | 6 | 157 | 0.0 | 0.0 | 0.00 | 0.79 | 0.48 | 92 | 1017.8 |
| 20260505233035 | 7 | 225 | 1.6 | 4.8 | 0.00 | 0.79 | 0.48 | 91 | 1017.6 |
| 20260505232032 | 7 | 135 | 0.0 | 0.0 | 0.00 | 0.79 | 0.48 | 91 | 1017.4 |
| 20260505225032 | 7 | 157 | 0.0 | 1.6 | 0.00 | 0.79 | 0.48 | 91 | 1017.4 |
| 20260505224031 | 7 | 157 | 0.0 | 0.0 | 0.00 | 0.79 | 0.48 | 92 | 1017.3 |
| 20260505223034 | 7 | 135 | 0.0 | 0.0 | 0.00 | 0.81 | 0.48 | 92 | 1017.4 |
| 20260505222032 | 7 | 180 | 0.0 | 0.0 | 0.00 | 0.81 | 0.48 | 92 | 1017.4 |
| 20260505221031 | 7 | 180 | 0.0 | 0.0 | 0.00 | 0.84 | 0.48 | 92 | 1017.4 |
| 20260505220033 | 7 | 103 | 0.0 | 0.0 | 0.00 | 0.89 | 0.48 | 92 | 1017.4 |
| 20260505215030 | 6 | 214 | 0.0 | 0.0 | 0.00 | 0.94 | 0.48 | 91 | 1017.4 |
| 20260505214047 | 7 | 225 | 0.0 | 0.0 | 0.00 | 0.99 | 0.48 | 91 | 1017.4 |
| 20260505211031 | 6 | 135 | 1.6 | 3.2 | 0.00 | 1.09 | 0.48 | 91 | 1017.6 |
| 20260505210035 | 6 | 135 | 0.0 | 0.0 | 0.00 | 1.12 | 0.48 | 91 | 1017.6 |
| 20260505205033 | 7 | 46 | 0.0 | 0.0 | 0.00 | 1.14 | 0.48 | 90 | 1017.5 |
| 20260505204031 | 7 | 80 | 0.0 | 0.0 | 0.00 | 1.19 | 0.48 | 90 | 1017.3 |
| 20260505203035 | 7 | 45 | 0.0 | 1.6 | 0.00 | 1.24 | 0.48 | 90 | 1017.5 |
| 20260505202032 | 7 | 112 | 0.0 | 1.6 | 0.00 | 1.30 | 0.48 | 89 | 1017.3 |
| 20260505201032 | 7 | 265 | 0.0 | 1.6 | 0.00 | 1.30 | 0.48 | 89 | 1017.2 |
| 20260505200034 | 7 | 147 | 0.0 | 0.0 | 0.00 | 1.30 | 0.48 | 89 | 1017.3 |
| 20260505195033 | 7 | 180 | 0.0 | 0.0 | 0.00 | 1.30 | 0.48 | 89 | 1017.4 |
| 20260505194131 | 7 | 174 | 3.2 | 4.8 | 0.00 | 1.30 | 0.48 | 89 | 1017.4 |
| 20260505193132 | 7 | 157 | 0.0 | 0.0 | 0.00 | 1.30 | 0.48 | 90 | 1017.3 |
| 20260505192132 | 7 | 180 | 0.0 | 1.6 | 0.00 | 1.30 | 0.48 | 89 | 1017.2 |
| 20260505191232 | 7 | 149 | 0.0 | 0.0 | 0.00 | 1.30 | 0.48 | 88 | 1017.2 |
| 20260505190331 | 7 | 202 | 0.0 | 1.6 | 0.00 | 1.30 | 0.48 | 87 | 1017.0 |
| 20260505185333 | 8 | 136 | 3.2 | 6.4 | 0.00 | 1.30 | 0.48 | 87 | 1016.8 |
| 20260505184333 | 7 | 136 | 0.0 | 0.0 | 0.00 | 1.30 | 0.48 | 87 | 1017.0 |
| 20260505183331 | 7 | 247 | 0.0 | 0.0 | 0.00 | 1.30 | 0.48 | 88 | 1016.7 |
| 20260505181331 | 7 | 180 | 0.0 | 0.0 | 0.00 | 1.30 | 0.48 | 87 | 1016.6 |
| 20260505175332 | 7 | 157 | 0.0 | 0.0 | 0.00 | 1.30 | 0.48 | 88 | 1016.4 |
| 20260505173432 | 7 | 157 | 0.0 | 1.6 | 0.00 | 1.30 | 0.48 | 83 | 1016.2 |
| 20260505172432 | 7 | 180 | 1.6 | 3.2 | 0.00 | 1.30 | 0.48 | 84 | 1016.1 |
| 20260505171432 | 8 | 180 | 0.0 | 0.0 | 0.00 | 1.30 | 0.48 | 87 | 1016.1 |
| 20260505170431 | 8 | 225 | 0.0 | 0.0 | 0.00 | 1.30 | 0.48 | 91 | 1016.2 |
| 20260505165431 | 8 | 225 | 0.0 | 0.0 | 0.00 | 1.30 | 0.48 | 93 | 1016.1 |
| 20260505164432 | 7 | 58 | 0.0 | 1.6 | 0.00 | 1.30 | 0.48 | 95 | 1015.9 |
| 20260505163432 | 5 | 180 | 0.0 | 0.0 | 0.00 | 1.32 | 0.48 | 94 | 1015.8 |
| 20260505162530 | 5 | 180 | 0.0 | 1.6 | 0.00 | 1.32 | 0.48 | 94 | 1015.7 |
| 20260505161534 | 5 | 180 | 0.0 | 0.0 | 0.00 | 1.32 | 0.48 | 95 | 1015.9 |
| 20260505160548 | 4 | 180 | 0.0 | 0.0 | 0.03 | 1.32 | 0.48 | 94 | 1015.9 |
| 20260505152731 | 3 | 225 | 0.0 | 0.0 | 0.13 | 1.42 | 0.48 | 94 | 1015.5 |
| 20260505151732 | 2 | 225 | 0.0 | 0.0 | 0.15 | 1.52 | 0.48 | 94 | 1015.3 |
| 20260505150830 | 2 | 225 | 0.0 | 0.0 | 0.13 | 1.55 | 0.46 | 94 | 1015.2 |
| 20260505123931 | 2 | 225 | 0.0 | 0.0 | 0.00 | 1.45 | 0.25 | 95 | 1014.7 |
| 20260505121933 | 2 | 225 | 0.0 | 0.0 | 0.00 | 1.45 | 0.25 | 94 | 1014.6 |
| 20260505121030 | 2 | 225 | 0.0 | 0.0 | 0.00 | 1.45 | 0.25 | 94 | 1014.7 |
| 20260505120034 | 2 | 225 | 0.0 | 0.0 | 0.00 | 1.45 | 0.25 | 95 | 1014.7 |
| 20260505115047 | 2 | 225 | 0.0 | 0.0 | 0.00 | 1.45 | 0.25 | 94 | 1014.6 |
| 20260505113034 | 2 | 225 | 0.0 | 0.0 | 0.00 | 1.45 | 0.25 | 94 | 1014.6 |
| 20260505111030 | 2 | 225 | 0.0 | 0.0 | 0.00 | 1.45 | 0.25 | 95 | 1014.7 |
| 20260505101032 | 2 | 225 | 0.0 | 0.0 | 0.05 | 1.45 | 0.25 | 95 | 1015.1 |
| 20260505100039 | 2 | 225 | 0.0 | 0.0 | 0.03 | 1.45 | 0.23 | 94 | 1015.1 |
| 20260505095031 | 2 | 225 | 0.0 | 0.0 | 0.05 | 1.45 | 0.23 | 95 | 1015.1 |
| 20260505094130 | 2 | 225 | 0.0 | 0.0 | 0.05 | 1.45 | 0.23 | 95 | 1015.1 |
| 20260505093131 | 2 | 225 | 0.0 | 0.0 | 0.05 | 1.45 | 0.23 | 95 | 1015.0 |
| 20260505092131 | 2 | 225 | 0.0 | 0.0 | 0.08 | 1.45 | 0.20 | 95 | 1015.3 |
| 20260505091132 | 2 | 225 | 0.0 | 0.0 | 0.08 | 1.42 | 0.20 | 95 | 1015.2 |
| 20260505090130 | 2 | 225 | 0.0 | 0.0 | 0.08 | 1.42 | 0.20 | 94 | 1015.3 |
| 20260505085131 | 2 | 225 | 0.0 | 0.0 | 0.08 | 1.40 | 0.18 | 94 | 1015.3 |
| 20260505084132 | 2 | 225 | 0.0 | 0.0 | 0.10 | 1.40 | 0.18 | 95 | 1015.4 |
| 20260505083130 | 3 | 225 | 0.0 | 0.0 | 0.10 | 1.40 | 0.18 | 94 | 1015.6 |
| 20260505081133 | 3 | 225 | 0.0 | 0.0 | 0.10 | 1.35 | 0.13 | 94 | 1015.8 |
| 20260505080133 | 3 | 225 | 0.0 | 0.0 | 0.13 | 1.35 | 0.13 | 95 | 1015.7 |
| 20260505074133 | 3 | 225 | 0.0 | 0.0 | 0.10 | 1.30 | 0.08 | 95 | 1015.8 |
| 20260505073133 | 3 | 225 | 0.0 | 0.0 | 0.13 | 1.30 | 0.05 | 95 | 1015.8 |
| 20260505072130 | 3 | 225 | 0.0 | 0.0 | 0.13 | 1.27 | 0.05 | 94 | 1015.8 |
| 20260505071131 | 3 | 225 | 0.0 | 0.0 | 0.13 | 1.24 | 0.03 | 95 | 1015.8 |
| 20260505070230 | 3 | 225 | 0.0 | 0.0 | 0.13 | 1.24 | 0.00 | 94 | 1015.8 |
| 20260505065329 | 3 | 225 | 0.0 | 0.0 | 0.13 | 1.22 | 1.22 | 95 | 1015.8 |
| 20260505064329 | 3 | 225 | 0.0 | 0.0 | 0.13 | 1.19 | 1.19 | 95 | 1015.8 |
| 20260505063329 | 3 | 225 | 0.0 | 0.0 | 0.15 | 1.19 | 1.19 | 94 | 1015.7 |
| 20260505062328 | 3 | 225 | 0.0 | 0.0 | 0.15 | 1.17 | 1.14 | 95 | 1015.9 |
| 20260505060330 | 3 | 225 | 0.0 | 0.0 | 0.15 | 1.12 | 1.12 | 94 | 1015.9 |